AirNav   Everest Fuels
 
 1212 users online  

75J Turner County Airport
Ashburn, Georgia, USA

GOING TO ASHBURN?


FAA INFORMATION EFFECTIVE 02 JANUARY 2020

Location

FAA Identifier: 75J
Lat/Long: 31-41-15.4000N 083-37-58.6000W
31-41.256667N 083-37.976667W
31.6876111,-83.6329444
(estimated)
Elevation: 388.9 ft. / 118.5 m (surveyed)
Variation: 06W (2020)
From city: 2 miles SE of ASHBURN, GA
Time zone: UTC -5 (UTC -4 during Daylight Saving Time)
Zip code: 31790

Airport Operations

Airport use: Open to the public
Control tower: no
ARTCC: JACKSONVILLE CENTER
FSS: MACON FLIGHT SERVICE STATION
NOTAMs facility: MCN (NOTAM-D service available)
Attendance: UNATNDD
Wind indicator: lighted
Segmented circle: yes
Lights: DUSK-0000. MIRL RY 17/35 OPER DUSK-0000. AFTER 0000, ACTVT MIRL RY 17/35.
Beacon: white-green (lighted land airport)
ROTG BCN LCTD ON WATER TANK 1/4 MILE NW OF ARPT. Operates sunset to sunrise.

Airport Communications

CTAF/UNICOM: 122.7
WX AWOS-3PT at TMA (17 nm SE): 118.525 (229-386-8937)
WX AWOS-3 at FZG (18 nm E): 118.625 (229-426-5072)
WX AWOS-3PT at CKF (19 nm N): 119.325 (229-276-2669)
  • APCH/DEP SVC PRVDD BY JACKSONVILLE ARTCC (ZJX) ON 125.75/363.075 (ALBANY RCAG)

Nearby radio navigation aids

VOR radial/distance  VOR name  Freq  Var
IFMr336/(17.2)TIFT MYERS VOR112.5001W
VNAr191/32.3VIENNA VORTAC116.5001E
PZDr089/33.8PECAN VOR/DME116.1002W

 
NDB name  Hdg/Dist  Freq  Var  ID
FITZGERALD289/18.036205WSUR ... ..- .-.
CONEY154/22.040006WOHY --- .... -.--
EASTMAN226/36.136604WEZM . --.. --
LINDBERGH144/37.924204WLKG .-.. -.- --.

Airport Services

Parking: tiedowns
Airframe service: NONE
Powerplant service: NONE
Bottled oxygen: NONE
Bulk oxygen: NONE

Runway Information

Runway 17/35

Dimensions: 5005 x 75 ft. / 1526 x 23 m
Surface: asphalt, in excellent condition
Weight bearing capacity: 
Single wheel: 30.0
Runway edge lights: medium intensity
RUNWAY 17  RUNWAY 35
Latitude: 31-41.649090N31-40.864370N
Longitude: 083-38.127205W083-37.827328W
Elevation: 388.8 ft.387.8 ft.
Traffic pattern: leftleft
Markings: nonprecision, in good conditionnonprecision, in good condition
Touchdown point: yes, no lightsyes, no lights
Obstructions: 6 ft. trees, 201 ft. from runway, 114 ft. right of centerline
6 FT-10 FT TREES 100 FT-200 FT LEFT BTN 0 FT-200 FT FM END OF RWY. ALSO 6 FT-10 FT TREES 114 FT-200 FT RIGHT BTN 60 FT-200 FT FROM END OF RWY.
49 ft. trees, 494 ft. from runway, 198 ft. left of centerline, 6:1 slope to clear

Airport Ownership and Management from official FAA records

Ownership: Publicly-owned
Owner: TURNER COUNTY
PO BOX 191
ASHBURN, GA 31714
Phone 229-567-4313
Manager: MIKE MASTRARIO
P.O. BOX 191
ASHBURN, GA 31714
Phone 229-567-3563
EMERGENCY CONTACT: 229-567-1871 OR 229-567-2754.

Airport Operational Statistics

Aircraft based on the field: 4
Single engine airplanes: 4
    
Aircraft operations: avg 60/week *
51% local general aviation
46% transient general aviation
3% military
* for 12-month period ending 31 December 2018

Additional Remarks

FOR CD CTC VALDOSTA APCH AT 229-257-2207, WHEN APCH CLSD CTC JACKSONVILLE ARTCC AT 904-845-1592.

Instrument Procedures

NOTE: All procedures below are presented as PDF files. If you need a reader for these files, you should download the free Adobe Reader.

NOT FOR NAVIGATION. Please procure official charts for flight.
FAA instrument procedures published for use from 02 January 2020 at 0901Z to 30 January 2020 at 0900Z.

 
IAPs - Instrument Approach Procedures
RNAV (GPS) RWY 17   download (164KB)
RNAV (GPS) RWY 35   download (179KB)
NOTE: Special Take-Off Minimums/Departure Procedures apply   download (1015KB)

Other nearby airports with instrument procedures:

KTMA - Henry Tift Myers Airport (17 nm SE)
KFZG - Fitzgerald Municipal Airport (18 nm E)
KCKF - Crisp County-Cordele Airport (19 nm N)
KABY - Southwest Georgia Regional Airport (30 nm W)
15J - Cook County Airport (34 nm S)
 
Loc | Ops | Rwys | IFR | FBO | Links
Com | Nav | Svcs | Stats | Notes
Area around 75J (Turner County Airport)
 
Road maps at: MapQuest Bing Google
 
Aerial photo
WARNING: Photo may not be current or correct
Aerial photo of 75J (Turner County Airport)
Photo by Grayson Watson
Taken in March 2007

Do you have a better or more recent aerial photo of Turner County Airport that you would like to share? If so, please send us your photo.

 
Sectional chart

 
Airport distance calculator
Flying to Turner County Airport? Find the distance to fly.

From to 75J

Sunrise and sunset
Times for 26-Jan-2020
 Local
(UTC-5)
 Zulu
(UTC)
Morning civil twilight07:0612:06
Sunrise07:3212:32
Sunset18:0223:02
Evening civil twilight18:2823:28

Current date and time
Zulu (UTC)  26-Jan-2020 22:09:22
Local (UTC-5)  26-Jan-2020 17:09:22
 
METAR
KTMA 
17nm SE 
262155Z AUTO 31006KT 10SM OVC085 14/00 A3006 RMK AO2 T01371004
KFZG 
18nm E 
262155Z AUTO 30004KT 10SM OVC090 13/02 A3008 RMK AO2 T01320016 PWINO
KCKF 
19nm N 
262155Z AUTO 24004KT 10SM OVC080 12/01 A3007 RMK AO2 T01180009
KABY 
30nm W 
262153Z 29004KT 10SM OVC075 13/03 A3010 RMK AO2 SLP192 T01330033
TAF
KABY 
30nm W 
261733Z 2618/2718 VRB03KT P6SM BKN100 TEMPO 2702/2706 4SM -RA OVC025 FM270600 VRB03KT P6SM -RA OVC040 FM270900 00000KT P6SM -RA OVC027 PROB30 2715/2718 4SM RA OVC008
NOTAMs
Click for the latest NOTAMs
NOTAMs are issued by the DoD/FAA and will open in a separate window not controlled by AirNav.

 

 
 

Would you like to see your business listed on this page?

 If your business provides an interesting product or service to pilots, flight crews, aircraft, or users of the Turner County Airport, you should consider listing it here.  To start the listing process, click on the button below
 
Add a business
 

Other Pages about Turner County Airport

Update a link
 
Copyright © AirNav, LLC. All rights reserved. Privacy Policy  Contact